Regional Weather Roundup
Issued by NWS Sterling, VA

Home | Current Version | Previous Version | Graphics & Text | Print | Product List | Glossary On
Versions: 1 2 3 4 5 6 7 8 9 10 11 12 13 14 15 16 17 18 19 20 21 22 23 24 25 26 27 28 29 30 31 32 33 34 35 36 37 38 39 40 41 42 43 44 45 46 47 48 49 50
000
ASUS41 KLWX 060910
RWRLWX

REGIONAL WEATHER ROUNDUP
NATIONAL WEATHER SERVICE BALTIMORE MD/WASHINGTON DC
500 AM EDT FRI MAY 06 2016

Note: "FAIR" indicates few or no clouds below 12,000 feet
with no significant weather and/or obstructions to visibility.
 TC=TEMPERATURE CELSIUS

 * =Non NWS site. Station does not report precipitation (e.g. rain,
    snow, etc.), thunder, or fog.

DCZ001-MDZ009-015-VAZ040>042-051-053>054-061000-
WASHINGTON METRO

CITY           SKY/WX    TMP DP  RH WIND       PRES   REMARKS
WASHINGTON NAT CLOUDY    55  49  80 N10       29.65R
DULLES         CLOUDY    52  48  86 N10       29.66R
ANDREWS AFB    CLOUDY    52  49  88 N7        29.63S
FT BELVOIR     CLOUDY    53  49  88 NW7       29.65R
QUANTICO       LGT RAIN  53  50  89 N8        29.66R
COLLEGE PARK*  CLOUDY    52  46  82 N5        29.64S
LEESBURG*      CLOUDY    54  54 100 N8        29.68R
MANASSAS*      CLOUDY    52  52 100 N6        29.66S
GAITHERSBURG*  CLOUDY    52  46  82 CALM      29.70R

$$

MDZ006>007-011-014-061000-
BALTIMORE METRO

CITY           SKY/WX    TMP DP  RH WIND       PRES   REMARKS
BWI AIRPORT    CLOUDY    53  48  83 N5        29.64R
MD SCIENCE CTR   N/A     55  47  74 MISG      29.65R
MARTIN STATE   CLOUDY    54  50  87 NW3       29.65S
ANNAPOLIS      CLOUDY    53  50  89 NE3       29.64R
FORT MEADE*    CLOUDY    52  46  82 N6        29.67S

$$

MDZ012-015-019>023-061000-
MARYLAND EASTERN SHORE

CITY           SKY/WX    TMP DP  RH WIND       PRES   REMARKS
OCEAN CITY     RAIN      48  46  93 NE14G20   29.60F
SALISBURY      LGT RAIN  48  47  96 NE13      29.60F
CAMBRIDGE*       N/A     50  46  87 NE6       29.62S
EASTON*        CLOUDY   N/A N/A N/A NE3       29.67S

$$

MDZ017>025-061000-
SOUTHERN MARYLAND

CITY           SKY/WX    TMP DP  RH WIND       PRES   REMARKS
PATUXENT RIVER CLOUDY    52  47  83 NE15      29.62S
ST INIGOES     LGT RAIN  52  49  89 VRB6      29.61S
LEONARDTOWN*   CLOUDY    50  48  93 NW3       29.63F

$$

MDZ003>005-061000-
NORTH CENTRAL MARYLAND

CITY           SKY/WX    TMP DP  RH WIND       PRES   REMARKS
FREDERICK*     CLOUDY    50  50 100 CALM      29.69S
HAGERSTOWN APT LGT RAIN  52  48  86 N6        29.68S
WESTMINSTER*   CLOUDY    52  46  82 N7        29.66F

$$

MDZ501>502-061000-
WESTERN MARYLAND

CITY           SKY/WX    TMP DP  RH WIND       PRES   REMARKS
OAKLAND*       FOG       41  41 100 N6        29.73S VSB 1/2
CUMBERLAND*    CLOUDY    54  46  76 N3        29.75S

$$

VAZ025>031-061000-
SHENANDOAH VALLEY

CITY           SKY/WX    TMP DP  RH WIND       PRES   REMARKS
WINCHESTER*    DRIZZLE   52  50  93 NW6       29.69S
FRONT ROYAL*   CLOUDY    50  48  93 NW6       29.68S
LURAY*         LGT RAIN  50  50 100 NE5       29.69S
NEW MARKET*    CLOUDY    49  49  99 CALM      29.69S
STAUNTON*      LGT RAIN  51  51 100 N5        29.71R
WAYNESBORO*    CLOUDY    48  47  96 NW7       29.68S

$$

WVZ021-048>050-054>055-061000-
EASTERN WEST VIRGINIA PANHANDLE

CITY           SKY/WX    TMP DP  RH WIND       PRES   REMARKS
MARTINSBURG    CLOUDY    51  48  89 NW8       29.68S
PETERSBURG*    CLOUDY    51  49  92 CALM      29.73S

$$

VAZ036>039-050-061000-
CENTRAL FOOTHILLS

CITY           SKY/WX    TMP DP  RH WIND       PRES   REMARKS
CHARLOTTESVILL LGT RAIN  51  49  92 CALM      29.67R
CULPEPER*      CLOUDY    52  51  96 N7        29.68R
ORANGE*        RAIN      52  52 100 SW9       29.68S
GORDONSVILLE*  CLOUDY    51  50  97 N7        29.66S
WARRENTON*     LGT RAIN  52  47  83 NW6       29.66S

$$

VAZ055>057-061000-
NORTH AND CENTRAL PIEDMONT

CITY           SKY/WX    TMP DP  RH WIND       PRES   REMARKS
FREDERICKSBRG* RAIN      52  52 100 N5        29.65R
STAFFORD*      RAIN      51  49  93 N7        29.69S

$$

NCZ024-NYZ072-PAZ021-071-VAZ022-071-061000-
OTHER REGIONAL OBSERVATIONS

CITY           SKY/WX    TMP DP  RH WIND       PRES   REMARKS
NEW YORK CITY  CLOUDY    48  45  89 NE7       29.69S
PHILADELPHIA   RAIN      51  47  86 NE8       29.65S FOG
PITTSBURGH     CLOUDY    50  42  74 N12       29.79R
ROANOKE        CLOUDY    50  47  89 CALM      29.72R
RICHMOND       HVY RAIN  51  50  96 W3        29.64S FOG
RALEIGH        LGT RAIN  50  49  96 W5        29.67S

$$

ANZ530>537-061000-
MARINE OBSERVATIONS

STATION/POSITION TIME  TEMP    WIND        PRES
                       AIR SEA DIR/SP/G
                 (UTC) (F)     (DEG/KT/KT) (MB)
THOMAS PT LIGHT  0900   53 57   50/  9/ 10 1004.9R
BALT KEY BRIDGE  0800   55      20/ 11/ 13 1003.1F
COVE POINT       0800   53      60/ 14/ 16 1003.7R
LEWISETTA        0800   53 60   20/  7/  9 1002.5F
SOLOMONS ISLAND  0800   53 60   20/  6/  7   N/A
PINEY POINT      0800           30/  5/  6   N/A

$$




USA.gov is the U.S. government's official web portal to all federal, state and local government web resources and services.